User: anonymous   Login
Location: Baix
(44.7118°N, 4.7648°E)
Time: 10:43:25
(UTC+00:00)
Language:

Cosmos 1092 Rocket - Orbit

View from above orbital plane
View from above orbital plane
View from above satellite
View from above satellite

Ground track
Ground track

The orbit data is extracted from the following two-line orbital elements,

1 11327U 79030B   20299.95880229 -.00000081 +00000-0 -97612-4 0  9998
2 11327 082.9463 105.0139 0027440 348.0286 120.4824 13.76949486087749
Epoch (UTC): 25 October 2020 23:00:40
Eccentricity: 0.0027440
inclination: 82.9463°
perigee height: 954 km
apogee height: 995 km
right ascension of ascending node: 105.0139°
argument of perigee: 348.0286°
revolutions per day: 13.76949486
mean anomaly at epoch: 120.4824°
orbit number at epoch: 8774

The dashed part of the orbit path shows where the satellite is in the earth's shadow,  

DLR